Temperature
-3 -2 -3 -3 -3 -4 -4 -3 -3 -3 -3 -3 -4 -5 -5 -5 -5 -6 -6 -6 -6 -6 -6 -6 -6 -6 -6 -6 -6 -6 -6 -6 -6 -5 -5 -5 -5 -5 -4 -4 -4 -4 -4 -4
-3 -3 -3 -3 -3 -4 -4 -4 -4 -4 -4 -5 -5 -5 -6 -6 -6 -6 -6 -6 -6 -6 -6 -6 -6 -6 -6 -7 -7 -7 -7 -7 -6 -6 -6 -6 -6 -5 -5 -5 -5 -5 -5 -5
-3 -4 -4 -4 -4 -4 -5 -5 -5 -4 -4 -6 -7 -7 -7 -7 -7 -6 -6 -6 -6 -7 -7 -7 -7 -7 -7 -7 -7 -7 -7 -7 -7 -7 -7 -7 -7 -6 -6 -6 -6 -6 -5 -5
-4 -4 -4 -3 -5 -5 -5 -6 -7 -7 -7 -7 -7 -6 -6 -6 -6 -7 -7 -7 -7 -7 -7 -7 -7 -7 -8 -8 -8 -8 -8 -8 -8 -8 -8 -7 -7 -7 -7 -7 -7 -6 -6 -6
-5 -5 -5 -5 -6 -7 -6 -6 -8 -8 -8 -8 -7 -8 -7 -7 -7 -7 -7 -7 -7 -7 -8 -8 -8 -8 -8 -8 -8 -8 -8 -8 -8 -8 -8 -8 -8 -8 -8 -8 -7 -7 -7 -7
-6 -5 -4 -4 -6 -7 -7 -6 -7 -8 -9 -9 -8 -8 -8 -7 -7 -7 -7 -8 -8 -8 -8 -8 -8 -8 -9 -9 -9 -9 -9 -9 -9 -9 -9 -9 -9 -9 -9 -8 -8 -8 -8 -8
-6 -6 -6 -7 -8 -7 -5 -5 -7 -8 -8 -9 -9 -8 -8 -8 -8 -8 -8 -8 -8 -8 -9 -9 -9 -9 -9 -9 -9 -9 -9 -9 -9 -9 -9 -9 -9 -9 -9 -9 -9 -9 -9 -9
-7 -6 -6 -8 -8 -7 -7 -7 -7 -8 -8 -8 -8 -9 -9 -9 -9 -9 -9 -9 -9 -9 -9 -9 -9 -10 -9 -9 -9 -10 -10 -10 -10 -10 -10 -10 -10 -9 -10 -10 -10 -10 -10 -10
-8 -6 -7 -7 -7 -7 -7 -7 -8 -8 -8 -9 -9 -9 -9 -9 -9 -9 -10 -10 -10 -10 -10 -10 -10 -10 -10 -10 -10 -10 -10 -10 -10 -10 -10 -10 -10 -10 -10 -10 -11 -11 -11 -10
-9 -9 -8 -8 -7 -7 -7 -8 -8 -8 -9 -9 -10 -10 -10 -10 -10 -10 -10 -10 -11 -11 -11 -11 -11 -11 -11 -11 -11 -11 -11 -11 -11 -11 -11 -11 -11 -11 -11 -11 -11 -11 -11 -11
-9 -9 -9 -8 -8 -7 -8 -8 -9 -9 -9 -10 -10 -10 -10 -11 -11 -11 -11 -11 -11 -11 -11 -11 -12 -12 -12 -12 -12 -12 -12 -11 -11 -12 -12 -12 -12 -12 -12 -12 -12 -12 -12 -12
-8 -8 -9 -8 -8 -8 -9 -9 -9 -10 -10 -10 -10 -11 -11 -11 -11 -11 -11 -12 -12 -12 -12 -12 -12 -12 -12 -12 -12 -12 -12 -12 -12 -12 -12 -12 -12 -12 -12 -12 -12 -12 -12 -12
-8 -8 -8 -8 -9 -9 -9 -10 -10 -10 -10 -11 -11 -11 -12 -12 -12 -12 -12 -12 -12 -12 -13 -13 -13 -12 -13 -13 -13 -13 -13 -13 -13 -13 -13 -13 -13 -13 -13 -12 -12 -12 -12 -12
-8 -9 -9 -9 -10 -10 -10 -10 -11 -11 -11 -11 -12 -12 -12 -12 -12 -12 -13 -13 -13 -13 -13 -13 -13 -13 -13 -13 -13 -13 -13 -13 -13 -13 -13 -13 -13 -13 -13 -13 -13 -12 -12 -12
-9 -10 -10 -10 -10 -11 -11 -11 -11 -11 -11 -12 -12 -12 -13 -13 -13 -13 -13 -13 -13 -13 -13 -14 -14 -13 -13 -14 -14 -14 -14 -14 -14 -14 -14 -14 -14 -14 -14 -14 -14 -13 -13 -13
-10 -11 -11 -11 -11 -11 -11 -12 -12 -12 -12 -12 -13 -13 -13 -13 -13 -13 -14 -14 -14 -14 -14 -14 -14 -14 -14 -14 -14 -14 -14 -14 -14 -14 -14 -14 -14 -14 -14 -14 -14 -14 -14 -14
-11 -12 -12 -12 -12 -12 -12 -12 -13 -13 -13 -13 -13 -13 -14 -14 -14 -14 -14 -14 -14 -14 -14 -14 -14 -14 -14 -14 -14 -14 -14 -14 -14 -14 -14 -15 -15 -15 -15 -15 -15 -15 -14 -14
-11 -12 -12 -12 -12 -13 -13 -13 -13 -13 -13 -14 -14 -14 -14 -14 -14 -14 -14 -14 -14 -14 -14 -15 -15 -15 -15 -15 -15 -15 -15 -15 -15 -15 -15 -15 -15 -15 -15 -15 -15 -15 -15 -14
-12 -12 -12 -13 -13 -13 -13 -13 -14 -14 -14 -14 -14 -14 -14 -15 -15 -15 -15 -15 -15 -15 -15 -15 -15 -15 -15 -15 -15 -15 -15 -15 -15 -15 -15 -15 -15 -15 -15 -15 -15 -15 -15 -15
-13 -13 -13 -13 -13 -14 -14 -14 -14 -14 -14 -15 -15 -15 -15 -15 -15 -15 -15 -15 -15 -15 -15 -15 -15 -15 -15 -15 -15 -15 -15 -15 -15 -15 -15 -15 -15 -15 -15 -15 -15 -15 -15 -15
-13 -13 -14 -14 -14 -14 -14 -14 -15 -15 -15 -15 -15 -15 -15 -15 -15 -16 -16 -15 -15 -15 -15 -15 -15 -15 -15 -16 -16 -16 -16 -16 -15 -15 -16 -16 -16 -16 -16 -16 -16 -16 -15 -15
-14 -14 -14 -14 -15 -15 -15 -15 -15 -15 -15 -15 -15 -16 -16 -16 -16 -16 -16 -16 -16 -16 -16 -16 -16 -16 -16 -16 -16 -16 -16 -16 -16 -16 -16 -16 -16 -16 -16 -16 -16 -16 -16 -16
-14 -15 -15 -15 -15 -15 -15 -15 -16 -16 -16 -16 -16 -16 -16 -16 -16 -16 -16 -16 -16 -16 -16 -16 -16 -16 -16 -16 -16 -16 -16 -16 -16 -16 -16 -16 -16 -16 -16 -16 -16 -16 -16 -16
-15 -15 -15 -15 -16 -16 -16 -16 -16 -16 -16 -16 -16 -16 -17 -17 -16 -17 -17 -17 -16 -16 -16 -16 -16 -17 -17 -16 -16 -16 -16 -16 -16 -16 -17 -17 -17 -17 -17 -16 -16 -16 -16 -16
-15 -16 -16 -16 -16 -16 -16 -16 -16 -16 -16 -17 -17 -17 -17 -17 -17 -17 -17 -17 -17 -17 -17 -17 -17 -17 -17 -17 -17 -17 -17 -17 -17 -17 -17 -17 -17 -17 -17 -17 -16 -16 -16 -16
-16 -16 -16 -17 -17 -17 -17 -17 -17 -17 -17 -17 -17 -17 -17 -17 -17 -17 -17 -17 -17 -17 -17 -17 -17 -17 -17 -17 -17 -17 -17 -17 -17 -17 -17 -17 -17 -17 -17 -17 -17 -16 -16 -16
-16 -17 -17 -17 -17 -17 -17 -17 -17 -17 -18 -18 -18 -18 -18 -18 -18 -18 -18 -18 -18 -18 -18 -18 -18 -18 -17 -17 -17 -17 -18 -17 -17 -17 -17 -17 -17 -17 -17 -17 -17 -17 -16 -16
Wind_Speed
5 4 3 5 7 6 8 8 8 8 9 9 6 5 4 3 2 3 3 3 3 3 3 3 4 4 4 4 5 4 4 4 5 5 5 5 5 5 5 5 6 6 6 6
3 3 3 6 8 8 9 7 8 8 10 7 4 2 2 3 3 4 5 4 4 4 4 4 4 5 5 5 5 5 4 5 5 5 5 5 5 5 5 5 5 5 6 6
4 3 3 7 8 9 6 6 7 10 9 3 3 4 4 4 5 5 6 5 5 5 5 5 5 5 5 5 5 5 5 5 5 5 5 6 6 6 6 6 5 6 6 6
2 1 6 7 2 5 6 6 6 5 4 4 4 4 3 4 4 5 5 6 6 5 5 5 4 5 5 5 5 5 5 5 5 5 6 6 6 6 6 5 5 6 7 7
2 3 7 6 2 3 4 5 4 6 5 4 2 2 3 2 2 4 5 6 6 5 5 4 4 4 4 4 4 4 5 6 6 6 6 6 6 7 6 6 6 6 6 6
3 4 6 6 2 1 3 4 2 3 4 3 1 2 4 3 4 5 5 4 4 4 4 4 4 3 3 4 5 5 6 6 6 6 6 7 7 7 6 6 6 6 7 6
5 6 7 5 2 2 3 5 1 3 3 3 3 5 4 4 5 4 5 5 4 3 3 4 4 3 4 5 6 6 6 6 6 6 6 6 6 5 5 5 5 5 6 7
4 5 8 2 4 5 5 1 1 1 2 3 4 4 4 4 5 5 5 5 4 4 4 4 4 3 4 6 6 6 5 6 6 6 5 5 5 5 4 4 4 5 5 6
7 7 3 3 4 2 1 1 1 2 3 3 4 5 5 4 4 5 5 5 4 4 5 5 4 4 5 6 5 5 5 6 5 6 5 5 5 5 4 3 4 4 4 5
4 6 4 3 2 1 1 2 2 3 3 3 4 5 5 5 5 5 4 4 4 4 4 5 5 5 5 5 5 4 5 6 5 5 5 5 4 4 4 4 4 5 5 5
5 5 3 3 3 3 2 2 2 2 3 3 4 5 5 5 5 4 5 4 4 4 5 6 6 5 6 5 4 4 5 5 5 5 5 5 5 4 5 5 6 6 5 5
7 5 5 5 2 2 2 3 3 3 3 3 4 5 5 5 4 4 4 4 4 4 5 5 5 6 6 5 4 4 4 5 4 4 4 4 4 5 7 7 9 10 10 9
5 2 3 3 1 1 2 3 3 3 4 4 4 4 4 4 4 4 4 4 5 5 5 5 5 6 6 6 5 4 4 5 4 4 4 4 4 4 5 7 8 9 10 10
2 0 2 2 2 2 2 2 2 3 3 4 4 3 3 4 4 4 5 5 4 4 5 5 6 6 6 5 5 5 5 6 5 4 4 4 4 4 4 5 6 6 8 11
2 2 3 2 2 2 2 2 2 4 4 4 3 3 4 4 5 5 5 4 4 4 5 5 6 6 6 5 5 5 5 4 4 4 4 4 4 4 4 5 5 6 6 7
2 1 1 2 3 3 3 3 4 5 5 5 4 5 4 4 5 5 4 3 3 5 5 5 6 6 5 5 5 4 4 7 6 4 4 4 4 4 4 4 5 5 5 6
1 2 3 4 4 4 4 4 5 5 5 5 5 5 4 4 4 4 4 4 4 5 6 6 6 6 6 5 4 4 4 5 7 5 4 4 4 4 4 4 5 5 5 7
4 4 4 4 5 5 5 5 5 5 5 5 5 4 4 4 5 5 5 4 4 5 6 6 6 5 5 5 4 4 4 4 4 4 4 4 4 4 4 5 5 6 6 7
1 2 2 3 4 4 4 5 5 5 5 4 4 4 5 5 5 5 4 4 4 6 6 6 8 6 5 6 6 3 4 4 4 4 4 6 6 5 5 5 5 5 6 5
1 2 2 3 3 3 4 4 4 4 4 3 3 4 5 5 4 4 4 5 5 5 6 6 6 5 5 6 7 3 4 4 4 4 4 4 5 5 5 5 6 6 5 5
2 3 3 3 4 4 4 4 4 5 5 4 4 5 5 6 4 4 4 5 5 5 6 7 5 4 4 5 6 3 3 4 4 4 5 5 5 5 5 6 6 6 6 6
2 3 3 3 3 4 4 4 4 4 5 4 4 5 5 5 5 4 5 5 5 8 5 4 4 6 7 6 3 3 3 4 4 4 4 5 5 6 6 6 6 6 6 6
3 3 3 3 4 4 4 4 4 4 4 5 5 5 5 5 4 4 5 4 4 8 6 4 7 9 9 4 2 3 4 4 4 4 5 5 5 5 6 6 6 6 6 6
3 3 3 3 3 3 4 5 4 4 4 5 5 5 5 4 4 4 4 7 9 9 5 7 10 10 8 3 3 4 4 4 5 5 5 5 5 5 6 6 6 6 6 7
2 2 2 2 3 3 4 4 4 4 4 4 4 4 3 3 4 4 4 5 8 8 5 7 10 10 6 3 4 4 4 5 5 5 5 5 5 6 6 6 6 7 7 7
2 2 2 3 3 3 3 3 3 4 3 4 4 4 3 3 4 4 4 5 6 8 6 5 5 7 4 4 4 5 5 6 6 6 5 6 6 6 6 7 8 7 7 7
2 2 2 3 3 3 3 3 3 4 4 4 5 4 4 4 4 4 4 5 5 5 5 5 4 4 5 5 5 5 5 5 5 6 6 6 6 6 7 8 7 7 8 8
Wind_Direction
247 254 213 233 240 206 205 213 219 240 241 254 250 248 252 259 279 292 296 297 298 301 304 312 317 316 315 316 317 313 308 306 301 303 302 300 297 293 286 279 277 270 265 265
268 259 244 261 254 226 224 227 234 254 264 263 257 246 265 260 261 270 275 277 284 290 294 298 301 304 309 309 310 311 303 300 305 309 308 303 297 294 290 283 278 276 267 263
258 292 328 271 237 211 213 213 204 232 245 260 268 259 251 252 250 255 262 272 273 273 269 274 278 285 289 295 304 306 303 302 305 304 301 298 298 297 291 284 280 275 271 265
251 17 244 245 220 192 208 239 223 235 260 250 250 263 267 254 239 254 273 278 275 273 277 280 283 288 289 294 297 297 298 299 299 300 297 298 296 292 288 285 280 275 274 268
183 232 271 284 250 177 195 260 233 231 259 278 299 317 293 261 246 264 274 275 274 271 273 278 281 282 286 290 293 294 294 295 295 295 294 294 292 289 288 286 285 278 276 271
175 205 242 251 252 192 121 273 238 208 245 263 337 277 276 300 311 306 306 297 291 289 289 283 286 280 277 283 287 287 290 293 292 290 288 286 285 285 285 282 281 282 281 275
206 226 259 257 250 136 179 248 210 200 232 226 225 242 276 305 311 311 312 310 305 296 291 285 286 280 278 281 282 287 293 295 293 292 289 285 286 286 283 282 285 285 284 283
184 213 252 228 138 181 219 254 173 228 238 239 253 273 288 298 305 312 315 314 313 306 302 301 293 282 282 284 291 298 298 297 297 297 295 297 290 289 286 281 283 284 283 285
195 215 251 175 188 215 163 212 250 249 258 251 264 275 286 293 298 303 303 306 310 304 304 306 301 286 282 292 300 302 302 300 299 302 301 299 292 286 288 279 272 278 279 283
238 256 250 233 236 247 220 232 253 249 254 245 259 274 283 289 295 300 302 304 309 307 306 308 308 301 291 295 300 298 298 299 299 302 302 299 295 288 279 268 267 271 275 280
246 267 298 271 232 238 249 256 272 286 272 257 256 274 276 284 289 291 296 301 300 293 296 300 309 309 305 302 297 296 296 296 298 297 294 296 294 284 282 268 266 266 264 267
234 231 214 250 240 213 241 268 267 277 294 290 266 269 278 281 283 288 293 298 297 294 295 300 305 307 308 305 295 287 292 296 296 296 293 292 296 300 294 292 295 290 281 280
233 253 234 258 263 244 258 273 275 267 266 279 279 268 272 280 285 288 290 289 288 290 292 296 300 302 304 304 301 289 282 288 289 292 295 292 291 294 303 308 306 304 302 295
236 177 262 256 263 287 280 287 295 290 280 276 277 280 276 282 288 285 282 283 288 291 294 296 297 298 301 303 300 294 289 286 290 287 292 294 291 289 289 296 306 308 308 308
257 220 230 258 280 303 304 304 304 296 291 290 283 279 276 276 280 282 284 291 299 296 295 296 297 299 305 304 302 299 297 292 290 293 294 295 295 292 290 291 294 300 306 311
286 285 246 253 274 289 294 286 282 284 288 290 288 284 278 274 278 286 290 287 290 291 294 294 293 298 303 302 301 299 294 298 306 303 300 302 302 299 296 294 296 299 302 305
211 256 262 277 283 288 281 273 270 276 280 281 283 287 287 286 290 294 296 291 284 285 289 290 293 301 301 299 296 294 294 298 306 307 302 300 299 296 292 290 291 293 293 299
228 240 246 254 267 279 285 283 283 282 279 277 283 285 279 274 276 283 290 298 300 299 296 295 297 297 296 297 294 292 293 294 297 296 298 299 299 296 294 292 291 291 295 302
266 265 275 276 272 270 274 280 285 285 284 281 276 275 275 270 270 277 285 288 290 296 301 301 306 309 302 298 302 290 293 296 297 298 297 298 303 303 300 297 294 290 292 294
321 317 312 308 304 288 283 288 289 291 290 284 280 285 290 287 279 280 281 276 270 276 289 298 298 294 293 294 299 290 288 291 293 294 296 294 297 299 298 298 299 297 294 293
305 307 308 307 307 301 290 288 289 293 296 289 276 277 283 289 285 279 281 288 290 289 291 298 302 296 291 293 295 292 289 292 294 291 292 294 296 297 298 300 301 300 296 294
293 294 296 300 303 305 303 296 289 290 297 297 288 283 285 291 291 286 269 266 285 301 307 292 289 295 304 304 293 289 289 291 293 294 294 295 296 296 297 297 297 297 296 293
286 287 293 296 295 298 305 303 293 289 288 289 289 288 285 283 280 281 293 290 292 301 306 292 300 308 313 316 305 294 294 294 295 294 294 295 295 295 296 296 296 295 295 294
293 293 294 299 303 303 306 306 301 293 286 286 284 281 282 290 290 273 274 300 311 310 304 303 311 315 319 324 307 299 296 295 294 294 295 294 295 295 296 296 297 296 294 292
294 294 299 309 309 302 298 304 309 306 304 304 303 301 290 277 278 295 299 299 309 316 312 311 316 319 323 313 304 299 296 293 293 293 291 294 295 295 296 297 297 296 296 294
304 300 293 288 287 295 304 309 310 311 314 315 316 314 311 305 297 298 302 302 303 312 314 309 310 313 312 305 299 297 295 299 303 302 297 296 295 296 296 297 296 295 295 294
322 316 314 316 315 314 312 311 310 311 309 306 308 312 316 317 315 313 311 311 310 309 306 305 305 304 301 300 299 297 294 293 293 292 293 292 292 292 294 293 293 294 295 295
Height
1498 1496 1498 1497 1497 1500 1501 1498 1498 1491 1491 1485 1485 1485 1485 1484 1484 1483 1482 1481 1480 1479 1478 1477 1476 1475 1474 1473 1472 1471 1469 1468 1467 1466 1466 1465 1464 1464 1464 1463 1463 1463 1463 1462
1499 1495 1496 1495 1492 1494 1495 1495 1494 1491 1488 1483 1483 1483 1482 1482 1481 1480 1479 1478 1477 1476 1475 1474 1472 1471 1470 1469 1468 1467 1465 1464 1463 1462 1461 1460 1459 1458 1458 1457 1457 1457 1456 1456
1498 1498 1495 1494 1489 1489 1490 1489 1489 1487 1483 1482 1482 1481 1480 1479 1478 1477 1476 1475 1474 1473 1471 1470 1469 1468 1466 1465 1464 1463 1461 1460 1458 1457 1456 1455 1454 1453 1452 1451 1451 1450 1450 1450
1501 1501 1500 1486 1483 1483 1484 1484 1484 1482 1480 1479 1479 1478 1477 1476 1475 1474 1474 1472 1470 1469 1467 1466 1465 1464 1463 1461 1460 1459 1457 1456 1454 1453 1451 1450 1449 1447 1446 1446 1445 1444 1444 1443
1501 1503 1494 1485 1483 1483 1484 1483 1481 1480 1479 1478 1477 1476 1474 1473 1473 1472 1471 1469 1467 1465 1464 1462 1461 1460 1459 1457 1456 1454 1453 1451 1449 1448 1446 1444 1443 1442 1441 1440 1439 1438 1437 1437
1500 1498 1492 1481 1481 1480 1483 1482 1477 1477 1477 1476 1476 1477 1473 1471 1470 1468 1467 1465 1463 1461 1459 1458 1457 1455 1454 1452 1451 1449 1448 1446 1445 1443 1441 1440 1438 1436 1435 1434 1433 1432 1432 1431
1498 1497 1488 1482 1479 1480 1484 1477 1475 1474 1474 1474 1474 1473 1470 1468 1466 1465 1463 1461 1459 1457 1455 1454 1452 1451 1449 1448 1446 1445 1443 1442 1440 1438 1437 1435 1433 1431 1430 1429 1428 1427 1426 1425
1497 1494 1487 1478 1478 1480 1476 1473 1472 1472 1472 1471 1470 1468 1466 1465 1463 1461 1459 1457 1455 1453 1451 1450 1448 1447 1445 1443 1442 1440 1439 1437 1435 1433 1432 1430 1428 1426 1425 1424 1423 1422 1421 1420
1487 1482 1476 1474 1473 1473 1472 1472 1471 1470 1469 1468 1466 1465 1463 1461 1459 1458 1456 1454 1452 1450 1447 1446 1444 1443 1441 1439 1437 1436 1434 1432 1431 1429 1427 1425 1424 1422 1421 1420 1419 1417 1416 1415
1482 1476 1473 1472 1471 1471 1470 1469 1468 1468 1467 1465 1463 1461 1460 1458 1456 1454 1452 1450 1448 1446 1444 1442 1440 1438 1437 1435 1433 1431 1430 1428 1426 1424 1422 1421 1419 1418 1417 1415 1414 1413 1412 1411
1478 1473 1471 1469 1468 1468 1467 1466 1465 1464 1463 1462 1460 1458 1457 1454 1453 1451 1449 1447 1445 1443 1441 1438 1436 1435 1433 1431 1429 1427 1425 1424 1422 1420 1418 1416 1415 1414 1412 1411 1410 1409 1408 1407
1471 1467 1468 1466 1465 1465 1464 1463 1462 1461 1459 1458 1457 1455 1453 1451 1449 1447 1445 1444 1442 1440 1437 1435 1433 1431 1430 1428 1426 1424 1422 1420 1418 1416 1414 1412 1410 1409 1407 1407 1406 1405 1404 1403
1465 1464 1464 1463 1463 1462 1462 1460 1459 1458 1456 1454 1453 1451 1449 1447 1446 1444 1442 1440 1438 1436 1434 1432 1430 1428 1426 1425 1423 1421 1419 1417 1415 1413 1411 1409 1407 1405 1403 1402 1401 1400 1399 1398
1462 1462 1461 1460 1460 1459 1458 1457 1456 1454 1452 1451 1449 1447 1445 1444 1442 1440 1438 1437 1435 1433 1431 1429 1427 1425 1423 1421 1420 1418 1416 1414 1412 1410 1408 1406 1404 1402 1400 1398 1396 1395 1394 1393
1459 1459 1459 1458 1457 1456 1455 1453 1452 1450 1448 1446 1445 1443 1441 1440 1438 1436 1435 1433 1431 1430 1428 1426 1424 1422 1420 1418 1417 1415 1413 1411 1409 1407 1405 1403 1401 1399 1397 1395 1393 1391 1390 1389
1457 1456 1456 1455 1454 1453 1451 1449 1448 1446 1444 1442 1440 1439 1438 1436 1435 1433 1432 1430 1428 1426 1424 1423 1421 1419 1418 1416 1414 1412 1410 1408 1406 1404 1402 1400 1398 1396 1394 1392 1390 1388 1387 1385
1454 1453 1452 1451 1450 1449 1448 1446 1445 1442 1440 1439 1437 1436 1434 1432 1431 1429 1428 1427 1425 1423 1422 1420 1418 1416 1415 1413 1411 1409 1407 1405 1403 1401 1399 1397 1395 1393 1391 1389 1387 1385 1384 1383
1452 1451 1450 1449 1447 1446 1445 1443 1441 1439 1437 1435 1434 1432 1431 1429 1427 1426 1425 1423 1422 1420 1419 1417 1415 1414 1412 1410 1408 1407 1405 1403 1401 1399 1396 1394 1392 1390 1388 1386 1384 1382 1380 1379
1449 1448 1447 1446 1445 1443 1442 1440 1438 1436 1434 1432 1431 1429 1427 1426 1425 1423 1422 1420 1418 1416 1415 1414 1412 1411 1409 1407 1406 1404 1402 1400 1398 1396 1394 1392 1389 1387 1385 1383 1381 1379 1377 1375
1447 1446 1445 1443 1442 1440 1438 1437 1435 1433 1431 1430 1428 1426 1424 1423 1422 1420 1418 1417 1415 1414 1413 1411 1409 1408 1406 1404 1403 1401 1399 1397 1395 1393 1391 1388 1386 1384 1382 1380 1378 1376 1374 1372
1444 1443 1442 1440 1439 1437 1436 1434 1432 1430 1428 1427 1425 1423 1421 1420 1419 1417 1415 1413 1413 1411 1410 1408 1407 1405 1403 1402 1400 1398 1396 1394 1392 1390 1388 1385 1383 1381 1379 1377 1374 1372 1370 1368
1442 1440 1439 1437 1436 1434 1433 1431 1429 1427 1426 1424 1422 1421 1419 1417 1416 1414 1412 1411 1410 1408 1407 1405 1404 1402 1401 1399 1397 1395 1393 1391 1389 1387 1384 1382 1380 1378 1376 1373 1371 1369 1366 1364
1439 1438 1436 1435 1433 1432 1430 1428 1427 1425 1423 1421 1420 1418 1416 1415 1413 1411 1409 1408 1407 1405 1404 1402 1401 1399 1397 1395 1393 1391 1389 1387 1385 1383 1381 1379 1377 1375 1372 1370 1367 1365 1362 1360
1437 1435 1434 1432 1431 1429 1427 1425 1424 1422 1421 1419 1417 1415 1414 1412 1410 1408 1407 1405 1404 1402 1400 1399 1397 1395 1394 1391 1390 1388 1386 1384 1382 1380 1378 1376 1373 1371 1369 1366 1363 1361 1358 1356
1434 1433 1431 1430 1428 1426 1424 1423 1421 1419 1418 1416 1414 1413 1411 1409 1407 1405 1404 1402 1400 1399 1397 1395 1394 1392 1390 1388 1386 1384 1382 1380 1378 1376 1374 1372 1370 1367 1365 1363 1360 1357 1355 1352
1432 1430 1429 1427 1426 1424 1422 1420 1419 1417 1415 1413 1412 1410 1408 1406 1404 1403 1401 1399 1397 1396 1394 1392 1390 1388 1386 1384 1382 1380 1378 1376 1374 1372 1370 1368 1366 1364 1361 1359 1356 1354 1351 1348
1429 1428 1427 1425 1424 1422 1420 1419 1417 1415 1413 1411 1409 1408 1406 1404 1402 1400 1398 1396 1394 1392 1390 1388 1386 1384 1382 1380 1378 1376 1374 1373 1371 1369 1367 1364 1362 1360 1358 1355 1353 1350 1347 1345